Temperature
17 17 17 17 17 17 17 17 17 17 17 17 17 17 17 17 17 17 17 17 17 17 17 17 17 17 17 17 17 17 17 16 16 16 16 16 16 16 16 16 16 16 16
17 17 17 17 17 17 17 17 17 17 17 17 17 17 17 17 17 17 17 17 17 17 17 17 17 17 17 17 17 17 17 16 16 16 16 16 16 16 16 16 16 16 16
17 17 17 17 17 17 17 17 17 17 17 17 17 17 17 17 17 17 17 17 17 17 17 17 17 17 17 17 17 17 16 16 16 16 16 16 16 16 16 16 16 16 16
17 17 17 17 17 17 17 17 17 17 17 17 17 17 17 17 17 17 17 17 17 17 17 17 17 16 16 16 16 16 16 16 16 16 16 16 16 16 16 16 16 16 16
17 17 17 17 17 17 17 17 17 17 17 17 17 17 17 17 17 16 17 17 17 17 16 16 16 16 16 16 16 16 16 16 16 16 16 16 16 16 16 16 16 16 16
17 17 17 17 17 17 17 17 17 17 17 17 17 17 17 17 17 16 16 16 16 16 16 16 16 16 16 16 16 16 16 16 16 16 16 16 16 16 16 16 16 16 16
17 17 17 17 17 17 17 17 17 17 17 17 17 17 17 17 17 17 16 16 16 16 16 16 16 16 16 16 16 16 16 16 16 16 16 16 16 16 16 16 16 16 15
17 17 17 17 17 17 17 17 17 17 17 17 17 17 17 17 17 17 17 17 17 16 16 16 16 16 16 16 16 16 16 16 16 16 16 15 15 15 15 15 15 15 15
17 17 17 17 17 17 17 17 17 17 17 17 17 17 17 17 17 17 17 17 17 17 16 16 16 16 16 16 16 16 16 15 15 15 15 15 15 15 15 15 15 15 15
17 17 17 17 17 17 16 16 16 16 17 17 17 17 17 17 17 17 17 17 17 17 17 17 16 16 16 16 16 16 15 15 15 15 15 15 15 15 15 15 15 15 15
17 17 17 17 16 16 16 16 16 16 16 17 17 17 17 17 17 17 17 17 17 17 17 17 17 16 16 16 16 16 16 15 15 15 15 15 15 15 15 15 15 15 15
17 17 17 17 17 16 16 16 16 16 16 16 17 17 17 17 17 17 17 17 17 17 17 17 17 17 16 16 16 16 16 16 16 15 15 15 15 15 15 15 15 15 15
17 17 17 17 17 16 16 16 16 16 16 16 16 17 17 17 17 17 17 17 17 17 17 17 17 17 17 17 16 16 16 16 16 16 15 15 15 15 15 15 15 15 15
17 17 17 17 16 16 16 16 16 16 16 16 16 16 16 17 17 17 17 17 17 17 17 17 17 17 17 17 17 16 16 16 16 16 15 15 15 15 15 15 15 15 15
17 17 17 17 16 16 16 16 16 16 16 16 16 16 16 16 16 17 17 17 17 17 17 17 17 17 17 17 17 16 16 16 16 16 16 15 15 15 15 15 15 15 15
17 17 17 16 16 16 16 16 16 16 16 16 16 16 16 16 16 16 16 16 16 16 16 17 17 17 17 17 17 16 16 16 16 16 16 15 15 15 15 15 15 15 15
17 17 17 16 16 16 16 16 16 16 16 16 16 16 16 16 16 16 16 16 16 16 16 16 16 17 17 17 17 16 16 16 16 16 16 15 15 15 15 15 15 15 15
17 17 16 16 16 16 16 16 16 16 16 16 16 16 16 16 16 16 16 16 16 16 16 16 16 16 16 16 16 16 16 16 16 16 15 15 15 15 15 15 15 15 15
16 16 16 16 16 16 16 16 16 16 16 16 15 15 15 15 15 15 15 15 15 15 15 15 16 16 16 16 15 16 15 15 15 15 15 15 15 15 15 15 15 15 15
16 16 16 16 16 16 16 16 16 16 15 15 15 15 15 15 15 15 15 15 15 15 15 15 15 15 15 15 15 15 15 15 15 15 15 15 15 15 15 15 15 15 15
16 16 16 16 15 15 15 15 15 15 15 15 15 15 15 15 15 15 15 15 14 14 14 14 14 14 14 14 14 14 14 14 14 14 14 14 14 14 14 14 14 14 14
15 15 15 15 15 15 15 15 15 15 15 15 15 14 14 14 14 14 14 14 14 14 14 14 14 13 13 13 13 13 13 13 13 14 13 14 14 14 14 14 14 14 14
15 15 15 14 14 14 14 14 14 14 14 14 14 14 14 14 14 13 13 13 13 13 13 12 12 12 12 12 12 12 12 12 12 12 12 12 13 12 13 13 13 13 13
14 14 14 14 14 14 14 14 14 14 14 13 13 13 13 13 13 12 12 12 12 12 12 11 11 11 11 11 11 11 11 11 11 11 11 11 11 11 12 12 12 12 12
14 13 13 13 13 13 13 13 13 13 13 12 12 12 12 11 11 11 11 11 11 11 11 10 10 10 10 10 10 10 10 10 10 10 10 10 10 10 10 11 11 11 11
13 13 13 12 12 12 12 12 12 12 12 11 11 11 11 10 10 10 10 10 10 10 10 9 9 9 9 9 9 9 9 8 8 8 8 8 8 8 8 9 9 9 10
Wind_Speed
5 5 4 5 5 5 4 3 3 3 2 3 5 7 6 8 10 11 12 15 15 14 14 13 13 12 12 12 12 11 11 11 11 11 11 11 11 11 10 10 10 9 9
6 5 4 4 5 6 6 5 4 3 2 3 4 6 6 9 10 11 11 13 15 15 14 13 13 13 12 12 12 12 11 11 11 11 12 11 11 11 10 10 10 9 9
9 6 4 3 4 6 5 4 2 2 2 2 4 4 5 7 9 10 11 11 12 14 14 14 13 13 13 13 12 12 12 12 12 12 12 12 12 11 11 11 10 10 10
10 7 4 3 5 5 4 3 2 2 2 2 3 3 3 5 7 10 10 11 11 11 13 14 14 13 13 13 13 12 12 12 13 13 13 12 12 12 12 12 11 11 11
10 8 4 3 5 4 3 3 3 3 2 2 2 2 3 3 4 8 8 10 12 12 12 13 14 14 13 13 13 13 13 13 13 13 13 13 13 13 13 13 13 12 12
9 8 4 4 5 4 3 3 3 2 2 2 2 2 1 2 2 4 6 8 11 12 13 12 12 13 14 13 13 13 13 13 14 14 14 14 14 14 15 14 14 14 14
9 7 4 4 4 4 4 4 3 3 2 2 3 3 3 2 1 3 3 4 6 11 12 13 12 12 12 14 14 13 13 13 14 14 14 14 15 15 16 16 16 16 15
8 7 5 5 4 4 4 4 4 3 1 2 3 3 2 4 3 1 2 4 5 7 8 12 12 13 13 12 13 14 14 14 14 14 15 15 16 16 16 16 17 17 17
8 7 7 5 5 4 4 4 4 4 2 1 2 4 3 3 2 3 2 3 4 5 5 9 12 14 14 13 14 14 15 14 14 14 14 15 15 16 16 16 16 17 17
7 8 8 6 5 4 4 3 4 3 4 2 0 0 2 4 3 1 3 2 3 5 6 5 9 12 14 14 15 15 15 15 14 14 13 13 14 15 15 15 15 16 16
6 8 8 6 5 4 5 4 4 4 3 3 2 1 1 1 2 3 2 3 3 3 5 5 6 9 13 15 15 16 16 16 15 14 13 12 13 14 14 14 14 14 15
4 6 7 6 6 5 5 5 5 5 4 4 3 2 2 2 1 2 3 3 3 4 4 4 4 7 12 15 16 17 18 17 16 15 14 13 12 12 13 13 13 13 13
4 6 6 5 5 5 5 4 4 4 4 4 3 2 2 2 2 3 3 2 3 3 2 3 4 8 11 14 16 18 19 19 18 17 16 15 14 13 13 13 13 13 13
7 7 7 6 6 6 5 4 3 3 3 3 3 2 1 1 1 2 3 3 0 2 2 4 3 6 10 14 18 19 18 20 20 19 18 17 17 16 15 15 14 14 14
7 8 8 7 6 6 5 5 3 3 3 3 2 2 2 1 0 1 2 3 4 2 3 4 3 4 8 12 16 17 18 20 21 21 20 20 19 19 18 18 17 17 16
7 8 8 7 6 6 5 5 3 3 4 3 3 2 1 1 0 1 1 1 3 4 3 4 4 3 4 7 13 15 18 19 21 21 22 22 22 22 21 21 20 20 19
8 9 8 7 6 5 5 5 4 3 4 3 2 2 3 2 1 1 0 1 1 3 3 4 3 2 2 3 3 9 13 13 15 20 23 24 24 24 24 24 23 23 22
7 7 7 7 6 6 5 6 5 4 4 4 4 3 3 2 2 2 1 1 1 2 3 3 3 2 2 3 3 4 7 10 12 16 21 23 25 25 25 25 24 24 23
6 6 6 6 5 4 4 4 4 4 4 4 3 3 3 2 2 2 2 2 2 1 2 2 3 2 2 2 2 3 3 4 7 11 14 17 19 20 21 22 22 23 22
6 6 5 5 4 4 3 2 3 3 3 2 2 2 1 2 2 2 2 2 2 1 1 1 2 2 2 2 1 2 3 3 4 5 6 7 8 11 14 16 18 19 20
6 6 5 5 4 3 2 2 2 3 3 2 2 1 1 2 1 0 0 1 1 1 1 1 2 2 2 2 2 2 3 4 4 2 3 4 4 5 8 11 13 14 15
7 7 6 6 6 4 4 5 4 3 3 3 2 2 4 6 6 5 5 4 3 1 1 1 2 2 3 2 2 2 2 2 4 2 2 5 3 4 4 7 10 11 12
8 9 8 8 7 6 7 7 8 6 6 5 5 4 5 6 7 5 6 8 7 8 4 1 2 2 2 3 3 3 3 3 4 4 2 4 3 4 5 9 11 9 10
9 9 8 8 8 8 9 9 9 8 7 7 6 6 6 6 7 6 5 6 6 7 6 4 2 2 3 3 2 2 3 4 4 4 1 3 3 4 5 7 8 8 10
11 9 8 9 9 9 10 10 9 7 8 8 7 7 7 6 9 9 7 6 7 6 9 11 9 7 7 7 4 2 3 3 3 4 2 2 3 4 4 4 6 10 13
12 11 11 9 10 9 12 11 9 6 7 6 5 6 9 8 9 9 6 6 6 6 7 8 8 10 10 11 10 4 2 2 2 3 3 3 3 3 4 4 4 8 10
Wind_Direction
157 160 168 175 184 182 177 178 185 180 180 162 153 146 145 157 162 167 174 176 175 174 175 175 175 175 176 177 177 176 174 172 171 170 169 167 166 164 162 160 159 157 156
157 155 157 167 181 182 178 171 171 158 157 145 145 146 153 162 166 171 176 181 182 182 182 182 181 181 182 184 186 186 183 182 182 180 179 177 177 176 175 173 171 171 169
157 154 155 164 172 173 164 147 140 122 132 126 133 148 157 164 171 177 179 182 187 190 190 189 190 191 191 191 193 194 192 191 190 189 188 188 188 189 188 187 186 185 183
153 147 151 159 161 154 143 131 125 113 103 119 135 156 156 164 173 181 182 186 190 195 200 200 198 199 201 201 201 201 200 200 200 198 197 198 198 199 198 198 198 197 196
150 144 144 148 143 131 134 145 121 128 127 136 152 153 163 169 177 182 186 194 197 200 204 209 207 205 209 211 210 209 207 206 207 207 208 207 207 207 207 207 208 208 207
148 141 136 130 126 121 122 120 119 111 129 156 149 121 171 182 178 185 194 198 203 207 209 209 211 213 218 220 218 217 215 213 213 213 215 216 215 214 214 214 215 216 216
144 140 133 128 129 132 140 133 118 108 99 112 86 39 2 356 224 210 195 196 205 208 207 208 209 212 220 225 225 223 221 219 217 218 219 221 222 220 220 221 222 223 224
148 146 138 142 138 128 125 124 121 115 76 112 123 103 26 345 323 259 203 203 203 203 207 212 212 214 218 222 227 227 225 225 223 222 223 225 225 226 226 227 227 228 229
152 144 147 143 143 143 148 146 133 130 130 47 141 143 149 212 283 318 270 212 193 194 206 209 213 218 219 222 227 229 229 228 226 227 228 227 227 227 228 230 232 233 234
153 151 147 141 142 144 149 158 144 137 133 117 7 191 170 159 156 270 317 295 229 207 205 208 211 215 216 218 221 226 228 229 228 228 229 229 228 227 229 231 235 237 238
160 154 149 143 143 146 154 148 135 130 130 140 144 126 79 82 121 149 234 288 299 256 227 217 209 209 211 213 216 221 224 224 224 226 227 230 231 231 233 236 238 241 242
166 162 154 149 148 152 159 156 145 140 135 132 133 130 136 140 185 166 197 234 251 266 249 232 219 214 211 211 215 219 220 220 221 224 226 228 229 232 235 239 243 246 247
184 182 166 160 157 163 162 153 145 149 150 144 148 152 157 175 177 166 163 211 248 279 289 254 230 222 217 213 217 219 219 220 221 223 225 227 230 233 236 239 241 245 248
187 181 170 167 169 167 163 153 147 160 159 156 157 167 178 195 174 172 165 157 133 316 302 273 265 228 222 215 220 219 219 221 222 224 226 228 230 232 234 237 239 242 245
183 178 171 170 173 167 160 156 158 175 171 178 178 187 194 216 170 175 169 163 156 201 272 274 270 249 227 223 222 217 218 222 223 225 228 231 233 235 237 238 239 241 243
175 168 171 169 170 168 162 161 165 174 175 192 195 193 217 223 259 79 137 167 166 174 226 264 258 268 243 232 227 218 221 226 227 230 233 236 239 240 242 243 243 244 245
167 168 169 167 168 171 168 167 179 179 192 217 224 213 241 238 251 276 259 112 147 166 213 270 271 286 266 248 229 227 231 231 235 238 240 243 245 245 246 246 247 247 247
162 162 161 163 171 175 177 179 193 194 199 216 229 224 249 245 249 254 238 239 220 193 193 255 289 306 284 256 248 240 239 238 239 246 247 249 251 252 252 251 250 250 250
146 145 147 154 158 160 167 178 187 190 192 201 207 210 235 229 253 260 248 247 251 234 190 213 266 284 291 297 290 277 266 267 265 262 260 258 259 260 260 259 256 255 254
138 139 140 146 148 146 146 156 167 176 178 174 173 176 200 197 232 249 252 259 260 276 263 246 270 286 289 303 322 289 294 289 286 288 288 284 282 279 274 269 266 263 262
133 128 121 108 102 106 102 128 145 152 152 135 108 83 65 69 64 152 260 265 252 260 297 293 286 304 310 328 312 298 285 294 289 287 300 299 304 302 298 287 279 276 273
112 106 101 96 82 70 63 81 110 109 107 103 89 63 55 42 33 38 40 44 54 44 313 286 282 284 286 293 300 306 309 323 302 312 324 298 295 291 300 301 297 293 289
105 95 93 92 82 56 61 74 86 91 84 76 72 62 52 39 34 31 40 42 35 30 25 310 294 295 301 305 313 313 302 278 270 286 308 288 299 297 306 305 304 306 310
101 96 92 89 82 61 67 77 83 84 81 72 68 70 67 42 31 35 46 39 28 20 15 15 334 308 315 309 288 280 280 293 288 293 308 279 302 296 300 301 307 325 331
99 92 85 79 76 61 61 72 81 85 78 68 64 60 59 49 32 42 51 43 30 15 20 24 26 20 11 2 357 8 359 355 320 310 340 313 305 309 302 298 330 344 339
103 96 84 74 73 65 56 65 77 85 82 71 58 49 49 47 39 46 53 47 32 2 360 11 17 17 16 17 18 23 0 345 320 307 335 339 312 332 316 304 318 331 330
Height
1547 1549 1551 1553 1554 1556 1557 1558 1559 1561 1562 1563 1564 1565 1565 1566 1567 1568 1569 1569 1570 1571 1572 1573 1574 1574 1575 1576 1577 1577 1578 1579 1579 1580 1581 1581 1582 1583 1584 1584 1585 1585 1586
1547 1549 1551 1552 1554 1555 1557 1558 1560 1561 1562 1563 1564 1565 1566 1566 1568 1568 1569 1570 1570 1571 1572 1573 1574 1574 1575 1576 1577 1577 1578 1579 1579 1580 1581 1582 1582 1583 1584 1584 1585 1585 1586
1547 1549 1550 1552 1554 1555 1557 1558 1560 1561 1562 1563 1564 1565 1566 1567 1568 1568 1569 1570 1570 1571 1572 1573 1574 1574 1575 1576 1576 1577 1578 1579 1579 1580 1581 1581 1582 1583 1583 1584 1585 1585 1586
1547 1548 1550 1552 1553 1555 1556 1557 1559 1560 1562 1563 1564 1565 1566 1567 1567 1568 1569 1570 1570 1571 1572 1572 1573 1574 1575 1575 1576 1577 1577 1578 1579 1579 1580 1581 1581 1582 1583 1584 1584 1585 1585
1546 1548 1550 1551 1553 1554 1555 1557 1558 1560 1561 1563 1564 1565 1566 1566 1567 1568 1568 1569 1570 1571 1571 1572 1572 1573 1574 1574 1575 1576 1576 1577 1578 1578 1579 1580 1581 1581 1582 1583 1583 1584 1584
1546 1547 1549 1551 1552 1554 1555 1557 1558 1560 1561 1562 1563 1564 1565 1566 1567 1567 1568 1568 1569 1570 1571 1571 1572 1572 1573 1573 1574 1574 1575 1575 1576 1577 1578 1578 1579 1580 1580 1581 1582 1582 1583
1545 1546 1548 1550 1551 1553 1554 1556 1557 1559 1560 1562 1563 1564 1565 1565 1566 1567 1567 1567 1568 1569 1570 1570 1571 1571 1572 1572 1572 1573 1573 1574 1574 1575 1576 1576 1577 1578 1579 1579 1580 1580 1581
1544 1545 1547 1549 1550 1552 1553 1555 1556 1558 1559 1561 1562 1563 1564 1566 1565 1566 1566 1566 1567 1568 1568 1569 1570 1570 1570 1571 1571 1571 1572 1572 1572 1573 1573 1574 1575 1576 1576 1577 1577 1578 1579
1543 1544 1546 1548 1549 1551 1552 1553 1555 1556 1558 1560 1561 1562 1563 1563 1564 1565 1564 1565 1566 1566 1567 1567 1568 1568 1569 1569 1569 1569 1570 1570 1570 1570 1571 1571 1572 1573 1573 1574 1574 1575 1576
1542 1543 1545 1546 1548 1549 1551 1552 1554 1555 1557 1558 1560 1561 1562 1562 1563 1563 1564 1564 1565 1565 1565 1566 1566 1567 1567 1567 1567 1568 1568 1568 1568 1568 1569 1569 1569 1569 1570 1571 1571 1571 1572
1540 1542 1544 1545 1547 1548 1549 1551 1552 1554 1556 1557 1559 1560 1560 1561 1562 1562 1562 1563 1563 1563 1564 1564 1564 1565 1565 1565 1565 1566 1566 1566 1566 1566 1566 1566 1566 1567 1567 1567 1567 1568 1568
1538 1540 1542 1544 1545 1547 1548 1549 1551 1553 1555 1556 1558 1559 1559 1560 1560 1561 1561 1561 1561 1562 1562 1562 1563 1563 1563 1564 1564 1564 1564 1564 1564 1564 1564 1564 1564 1564 1564 1564 1564 1564 1564
1536 1538 1540 1542 1544 1545 1547 1548 1550 1551 1553 1555 1556 1557 1558 1559 1559 1560 1560 1560 1560 1560 1560 1560 1561 1561 1561 1562 1562 1562 1562 1562 1562 1562 1562 1561 1561 1561 1561 1561 1561 1561 1561
1533 1536 1538 1540 1542 1544 1546 1547 1549 1550 1552 1553 1554 1556 1557 1557 1558 1558 1559 1559 1558 1558 1558 1558 1558 1559 1559 1559 1560 1560 1560 1560 1560 1560 1559 1559 1559 1558 1558 1558 1557 1557 1557
1532 1534 1537 1539 1541 1543 1544 1546 1547 1549 1550 1551 1552 1554 1555 1556 1556 1557 1557 1557 1557 1556 1556 1556 1556 1556 1556 1557 1557 1557 1558 1558 1558 1557 1557 1556 1556 1555 1555 1554 1554 1554 1553
1530 1532 1535 1537 1539 1541 1543 1545 1546 1547 1548 1549 1550 1551 1552 1553 1554 1554 1555 1555 1555 1555 1554 1554 1554 1554 1554 1554 1554 1554 1555 1555 1555 1554 1554 1553 1553 1552 1552 1551 1551 1550 1550
1527 1530 1533 1535 1537 1539 1541 1543 1544 1545 1547 1547 1548 1549 1550 1551 1551 1552 1552 1552 1552 1552 1551 1551 1551 1551 1551 1550 1551 1551 1551 1551 1551 1551 1550 1550 1549 1548 1548 1547 1547 1546 1545
1525 1528 1531 1534 1536 1537 1539 1541 1542 1543 1544 1545 1546 1546 1547 1548 1548 1549 1549 1549 1549 1549 1549 1548 1548 1548 1548 1547 1547 1547 1547 1547 1547 1547 1546 1545 1545 1544 1544 1543 1542 1541 1541
1523 1526 1529 1531 1533 1535 1537 1538 1540 1541 1542 1543 1543 1544 1544 1544 1545 1545 1546 1546 1546 1546 1546 1545 1544 1544 1544 1544 1543 1543 1543 1542 1542 1542 1541 1540 1540 1539 1538 1538 1537 1536 1535
1522 1524 1527 1529 1531 1533 1534 1535 1537 1538 1539 1540 1540 1541 1541 1541 1542 1542 1542 1542 1542 1542 1542 1541 1541 1540 1540 1539 1539 1538 1537 1537 1537 1536 1535 1535 1534 1533 1532 1532 1531 1530 1529
1519 1522 1524 1526 1528 1530 1531 1533 1534 1535 1536 1537 1537 1538 1538 1538 1538 1538 1538 1538 1538 1538 1538 1537 1536 1536 1535 1535 1534 1533 1532 1531 1530 1530 1529 1528 1528 1527 1526 1525 1524 1523 1523
1517 1519 1521 1524 1525 1527 1528 1530 1531 1532 1533 1534 1534 1535 1535 1535 1535 1535 1534 1534 1534 1534 1533 1533 1532 1531 1531 1530 1529 1528 1527 1526 1524 1525 1523 1522 1521 1520 1519 1518 1518 1516 1515
1515 1517 1519 1522 1523 1525 1526 1528 1529 1530 1530 1531 1532 1532 1532 1532 1532 1532 1531 1531 1531 1530 1530 1529 1528 1527 1526 1525 1524 1523 1522 1521 1519 1518 1517 1514 1514 1513 1512 1511 1511 1510 1509
1513 1516 1518 1520 1522 1523 1525 1526 1526 1527 1528 1528 1529 1529 1529 1529 1529 1529 1528 1528 1527 1527 1526 1525 1525 1523 1522 1521 1520 1519 1517 1516 1515 1514 1512 1509 1508 1506 1506 1505 1504 1503 1502
1513 1515 1518 1519 1521 1522 1524 1525 1525 1525 1526 1526 1527 1527 1527 1527 1527 1526 1526 1525 1525 1524 1523 1522 1521 1520 1519 1518 1516 1515 1513 1511 1509 1509 1507 1505 1502 1500 1499 1498 1497 1496 1495
1512 1515 1517 1519 1521 1522 1523 1524 1525 1525 1525 1525 1526 1526 1526 1526 1525 1525 1524 1523 1522 1521 1520 1519 1518 1517 1516 1514 1513 1511 1510 1508 1506 1505 1503 1501 1498 1495 1493 1492 1491 1490 1488